SWA1149 KLIT-KDEN

Flight info

Callsign SWA1149
Flight time 1h 50m
Altitude 34000
Route LESME HAAWK TUL KIISS CLASH4
Aircraft B738/M-SADE2E3GIJ4RWZ/LB1D1

Departure

Time 2026-04-22 05:37
Airport Bill & Hillary Clinton National Airport/Adams Field (KLIT)

Arrival

Time 2026-04-22 07:28
Airport Denver International Airport (KDEN)
Time Latitude Longitude Altitude Speed Heading
2026-04-22 05:23 34.73075 -92.22028 268 ft 0 kts 132°
2026-04-22 05:28 34.73086 -92.22037 268 ft 3 kts 182°
2026-04-22 05:28 34.73094 -92.22036 268 ft 0 kts 203°
2026-04-22 05:30 34.73090 -92.22039 268 ft 2 kts 211°
2026-04-22 05:30 34.73075 -92.22060 268 ft 1 kts 233°
2026-04-22 05:31 34.73075 -92.22061 268 ft 0 kts 240°
2026-04-22 05:31 34.73074 -92.22064 268 ft 0 kts 246°
2026-04-22 05:31 34.73075 -92.22085 268 ft 4 kts 293°
2026-04-22 05:31 34.73111 -92.22101 268 ft 8 kts 355°
2026-04-22 05:32 34.73180 -92.22074 268 ft 13 kts 22°
2026-04-22 05:32 34.73215 -92.21970 268 ft 14 kts 110°
2026-04-22 05:32 34.73170 -92.21855 268 ft 16 kts 113°
2026-04-22 05:32 34.73105 -92.21766 268 ft 14 kts 131°
2026-04-22 05:33 34.73062 -92.21668 268 ft 13 kts 113°
2026-04-22 05:33 34.73022 -92.21561 268 ft 15 kts 114°
2026-04-22 05:33 34.72973 -92.21429 268 ft 18 kts 114°
2026-04-22 05:33 34.72922 -92.21287 268 ft 18 kts 114°
2026-04-22 05:34 34.72906 -92.21149 268 ft 15 kts 58°
2026-04-22 05:34 34.72970 -92.21062 268 ft 13 kts 46°
2026-04-22 05:34 34.73036 -92.20978 268 ft 16 kts 46°
2026-04-22 05:34 34.73123 -92.20867 268 ft 20 kts 46°
2026-04-22 05:35 34.73222 -92.20741 268 ft 21 kts 46°
2026-04-22 05:35 34.73326 -92.20607 268 ft 22 kts 46°
2026-04-22 05:35 34.73421 -92.20472 268 ft 19 kts 52°
2026-04-22 05:35 34.73496 -92.20353 268 ft 16 kts 52°
2026-04-22 05:36 34.73551 -92.20256 268 ft 13 kts 72°
2026-04-22 05:36 34.73516 -92.20164 268 ft 12 kts 134°
2026-04-22 05:36 34.73472 -92.20167 268 ft 5 kts 222°
2026-04-22 05:36 34.73366 -92.20304 269 ft 52 kts 227°
2026-04-22 05:37 34.72960 -92.20821 267 ft 115 kts 226°
2026-04-22 05:37 34.72298 -92.21657 390 ft 148 kts 226°
2026-04-22 05:37 34.71568 -92.22450 930 ft 137 kts 225°
2026-04-22 05:37 34.71404 -92.23626 951 ft 150 kts 298°
2026-04-22 05:38 34.71938 -92.24553 1633 ft 135 kts 299°
2026-04-22 05:38 34.72479 -92.25593 1718 ft 155 kts 288°
2026-04-22 05:38 34.72765 -92.26938 1808 ft 178 kts 266°
2026-04-22 05:38 34.72696 -92.28447 2167 ft 196 kts 259°
2026-04-22 05:39 34.72514 -92.30173 2662 ft 214 kts 258°
2026-04-22 05:39 34.72316 -92.32048 3189 ft 232 kts 261°
2026-04-22 05:39 34.72519 -92.34077 3777 ft 254 kts 285°
2026-04-22 05:39 34.73440 -92.35972 4521 ft 268 kts 305°
2026-04-22 05:40 34.74671 -92.37724 5292 ft 275 kts 307°
2026-04-22 05:40 34.75903 -92.39425 6019 ft 280 kts 307°
2026-04-22 05:40 34.77187 -92.41238 6778 ft 285 kts 306°
2026-04-22 05:40 34.78476 -92.43084 7535 ft 288 kts 306°
2026-04-22 05:41 34.79784 -92.44950 8317 ft 291 kts 307°
2026-04-22 05:41 34.81108 -92.46831 9083 ft 293 kts 308°
2026-04-22 05:41 34.82422 -92.48700 9860 ft 296 kts 308°
2026-04-22 05:41 34.83763 -92.50612 10534 ft 301 kts 308°
2026-04-22 05:42 34.85150 -92.52591 11003 ft 313 kts 309°
2026-04-22 05:42 34.86590 -92.54646 11383 ft 327 kts 309°
2026-04-22 05:42 34.88107 -92.56810 11705 ft 344 kts 310°
2026-04-22 05:42 34.89696 -92.59078 11988 ft 360 kts 310°
2026-04-22 05:43 34.91352 -92.61445 12397 ft 373 kts 310°
2026-04-22 05:43 34.93056 -92.63882 12944 ft 381 kts 310°
2026-04-22 05:43 34.94789 -92.66362 13533 ft 388 kts 311°
2026-04-22 05:43 34.96550 -92.68885 14142 ft 393 kts 311°
2026-04-22 05:44 34.98329 -92.71436 14689 ft 398 kts 311°
2026-04-22 05:44 35.00132 -92.74022 15279 ft 401 kts 311°
2026-04-22 05:44 35.01951 -92.76633 15877 ft 405 kts 311°
2026-04-22 05:44 35.03782 -92.79263 16471 ft 407 kts 311°
2026-04-22 05:45 35.05622 -92.81910 17070 ft 410 kts 311°
2026-04-22 05:45 35.07478 -92.84579 17676 ft 413 kts 311°
2026-04-22 05:45 35.09342 -92.87263 18247 ft 416 kts 311°
2026-04-22 05:45 35.11219 -92.89969 18781 ft 418 kts 311°
2026-04-22 05:46 35.13080 -92.92652 19263 ft 421 kts 311°
2026-04-22 05:46 35.14975 -92.95387 19760 ft 423 kts 311°
2026-04-22 05:46 35.16885 -92.98146 20269 ft 426 kts 311°
2026-04-22 05:46 35.18802 -93.00918 20769 ft 428 kts 310°
2026-04-22 05:47 35.20730 -93.03707 21261 ft 430 kts 310°
2026-04-22 05:47 35.22671 -93.06517 21741 ft 433 kts 310°
2026-04-22 05:47 35.24619 -93.09340 22218 ft 436 kts 310°
2026-04-22 05:47 35.26490 -93.12265 22671 ft 439 kts 303°
2026-04-22 05:48 35.27904 -93.15588 23125 ft 442 kts 295°
2026-04-22 05:48 35.29155 -93.19031 23590 ft 444 kts 294°
2026-04-22 05:48 35.30401 -93.22507 23982 ft 447 kts 294°
2026-04-22 05:48 35.31665 -93.26001 24346 ft 449 kts 295°
2026-04-22 05:49 35.32923 -93.29455 24708 ft 452 kts 295°
2026-04-22 05:49 35.34221 -93.33033 25075 ft 454 kts 295°
2026-04-22 05:49 35.35498 -93.36579 25434 ft 457 kts 295°
2026-04-22 05:49 35.36768 -93.40106 25783 ft 459 kts 295°
2026-04-22 05:50 35.38063 -93.43693 26113 ft 461 kts 295°
2026-04-22 05:50 35.39362 -93.47296 26464 ft 464 kts 295°
2026-04-22 05:50 35.40664 -93.50918 26794 ft 466 kts 295°
2026-04-22 05:50 35.41974 -93.54570 27119 ft 468 kts 295°
2026-04-22 05:51 35.43289 -93.58234 27467 ft 471 kts 295°
2026-04-22 05:51 35.44611 -93.61921 27801 ft 473 kts 295°
2026-04-22 05:51 35.45935 -93.65619 28116 ft 475 kts 295°
2026-04-22 05:51 35.47268 -93.69345 28442 ft 478 kts 295°
2026-04-22 05:52 35.48600 -93.73078 28897 ft 477 kts 295°
2026-04-22 05:52 35.49927 -93.76799 29344 ft 476 kts 295°
2026-04-22 05:52 35.51250 -93.80513 29842 ft 475 kts 295°
2026-04-22 05:52 35.52573 -93.84230 30266 ft 474 kts 295°
2026-04-22 05:53 35.53890 -93.87935 30644 ft 474 kts 296°
2026-04-22 05:53 35.55191 -93.91601 30994 ft 473 kts 296°
2026-04-22 05:53 35.56505 -93.95305 31331 ft 473 kts 296°
2026-04-22 05:53 35.57820 -93.99018 31670 ft 473 kts 296°
2026-04-22 05:54 35.59131 -94.02724 32005 ft 473 kts 296°
2026-04-22 05:54 35.60444 -94.06441 32331 ft 474 kts 296°
2026-04-22 05:54 35.61755 -94.10156 32655 ft 474 kts 296°
2026-04-22 05:54 35.63064 -94.13871 32985 ft 474 kts 296°
2026-04-22 05:55 35.64374 -94.17592 33297 ft 474 kts 296°
2026-04-22 05:55 35.65685 -94.21321 33597 ft 475 kts 296°
2026-04-22 05:55 35.66993 -94.25045 33906 ft 475 kts 296°
2026-04-22 05:55 35.68303 -94.28780 34184 ft 475 kts 296°
2026-04-22 05:56 35.70459 -94.34939 34188 ft 468 kts 296°
2026-04-22 05:56 35.73033 -94.42301 34200 ft 468 kts 296°
2026-04-22 05:57 35.75604 -94.49680 34196 ft 469 kts 296°
2026-04-22 05:57 35.78169 -94.57054 34195 ft 469 kts 296°
2026-04-22 05:58 35.80735 -94.64450 34203 ft 470 kts 296°
2026-04-22 05:58 35.83300 -94.71860 34202 ft 469 kts 296°
2026-04-22 05:59 35.88565 -94.87131 34202 ft 470 kts 295°
2026-04-22 06:00 35.91115 -94.94550 34199 ft 470 kts 295°
2026-04-22 06:00 35.93666 -95.01996 34203 ft 471 kts 295°
2026-04-22 06:01 35.96192 -95.09386 34191 ft 470 kts 295°
2026-04-22 06:01 35.98733 -95.16836 34191 ft 470 kts 295°
2026-04-22 06:02 36.01264 -95.24277 34187 ft 470 kts 295°
2026-04-22 06:02 36.03790 -95.31719 34184 ft 470 kts 295°
2026-04-22 06:03 36.06318 -95.39186 34177 ft 471 kts 295°
2026-04-22 06:03 36.08841 -95.46659 34174 ft 470 kts 295°
2026-04-22 06:04 36.11355 -95.54122 34170 ft 470 kts 295°
2026-04-22 06:04 36.13858 -95.61570 34173 ft 469 kts 295°
2026-04-22 06:05 36.16345 -95.68991 34172 ft 470 kts 295°
2026-04-22 06:05 36.18856 -95.76467 34165 ft 470 kts 297°
2026-04-22 06:06 36.20465 -95.79964 34187 ft 467 kts 308°
2026-04-22 06:06 36.22480 -95.83111 34180 ft 466 kts 312°
2026-04-22 06:06 36.26610 -95.89293 34184 ft 466 kts 312°
2026-04-22 06:07 36.30719 -95.95498 34182 ft 466 kts 311°
2026-04-22 06:07 36.34831 -96.01698 34183 ft 466 kts 311°
2026-04-22 06:08 36.38940 -96.07913 34177 ft 465 kts 311°
2026-04-22 06:08 36.43056 -96.14146 34166 ft 467 kts 311°
2026-04-22 06:09 36.47171 -96.20393 34164 ft 467 kts 311°
2026-04-22 06:09 36.51286 -96.26649 34154 ft 467 kts 311°
2026-04-22 06:10 36.55399 -96.32915 34157 ft 467 kts 311°
2026-04-22 06:10 36.59494 -96.39164 34139 ft 465 kts 311°
2026-04-22 06:11 36.63582 -96.45413 34141 ft 465 kts 311°
2026-04-22 06:11 36.67654 -96.51650 34130 ft 467 kts 311°
2026-04-22 06:12 36.71608 -96.57719 34127 ft 467 kts 311°
2026-04-22 06:12 36.75696 -96.64004 34127 ft 467 kts 311°
2026-04-22 06:13 36.79782 -96.70298 34118 ft 467 kts 311°
2026-04-22 06:13 36.83864 -96.76597 34117 ft 465 kts 311°
2026-04-22 06:14 36.87928 -96.82880 34121 ft 465 kts 311°
2026-04-22 06:14 36.92001 -96.89190 34121 ft 467 kts 310°
2026-04-22 06:15 36.94014 -96.92312 34400 ft 467 kts 311°
2026-04-22 06:15 36.96049 -96.95472 34472 ft 467 kts 311°
2026-04-22 06:15 37.00122 -97.01804 34599 ft 466 kts 311°
2026-04-22 06:16 37.04183 -97.08131 34695 ft 467 kts 310°
2026-04-22 06:16 37.08239 -97.14462 34725 ft 466 kts 310°
2026-04-22 06:17 37.12293 -97.20800 34669 ft 467 kts 311°
2026-04-22 06:17 37.16344 -97.27148 34558 ft 465 kts 310°
2026-04-22 06:18 37.20363 -97.33457 34417 ft 465 kts 310°
2026-04-22 06:18 37.24401 -97.39806 34260 ft 465 kts 310°
2026-04-22 06:19 37.28437 -97.46168 34127 ft 466 kts 311°
2026-04-22 06:19 37.32475 -97.52539 34088 ft 464 kts 309°
2026-04-22 06:20 37.36493 -97.58898 34085 ft 465 kts 311°
2026-04-22 06:20 37.40526 -97.65289 34074 ft 465 kts 309°
2026-04-22 06:21 37.44543 -97.71665 34071 ft 466 kts 310°
2026-04-22 06:21 37.48561 -97.78059 34067 ft 464 kts 309°
2026-04-22 06:22 37.52562 -97.84438 34068 ft 465 kts 310°
2026-04-22 06:22 37.56551 -97.90806 34062 ft 465 kts 308°
2026-04-22 06:23 37.60558 -97.97219 34062 ft 464 kts 310°
2026-04-22 06:23 37.63873 -98.02533 34061 ft 464 kts 309°
2026-04-22 06:24 37.70521 -98.13215 34053 ft 462 kts 309°
2026-04-22 06:25 37.74491 -98.19613 34051 ft 463 kts 308°
2026-04-22 06:25 37.78435 -98.25978 34051 ft 463 kts 309°
2026-04-22 06:26 37.82401 -98.32395 34045 ft 463 kts 309°
2026-04-22 06:26 37.85695 -98.37728 34041 ft 461 kts 308°
2026-04-22 06:27 37.89643 -98.44139 34050 ft 461 kts 308°
2026-04-22 06:27 37.93576 -98.50534 34049 ft 460 kts 308°
2026-04-22 06:28 37.97506 -98.56938 34035 ft 460 kts 308°
2026-04-22 06:28 38.01438 -98.63358 34035 ft 461 kts 308°
2026-04-22 06:29 38.05363 -98.69779 34041 ft 461 kts 308°
2026-04-22 06:29 38.09282 -98.76202 34035 ft 460 kts 308°
2026-04-22 06:30 38.13194 -98.82628 34039 ft 460 kts 308°
2026-04-22 06:30 38.17100 -98.89055 34035 ft 460 kts 307°
2026-04-22 06:31 38.21007 -98.95496 34039 ft 460 kts 307°
2026-04-22 06:31 38.24912 -99.01948 34041 ft 460 kts 307°
2026-04-22 06:32 38.28791 -99.08368 34047 ft 460 kts 307°
2026-04-22 06:32 38.32683 -99.14824 34035 ft 458 kts 307°
2026-04-22 06:33 38.36570 -99.21284 34031 ft 459 kts 307°
2026-04-22 06:33 38.40451 -99.27746 34018 ft 459 kts 307°
2026-04-22 06:34 38.44330 -99.34218 34007 ft 459 kts 307°
2026-04-22 06:34 38.48201 -99.40690 33991 ft 459 kts 307°
2026-04-22 06:35 38.52074 -99.47179 33992 ft 458 kts 307°
2026-04-22 06:35 38.55931 -99.53651 33992 ft 458 kts 307°
2026-04-22 06:36 38.59765 -99.60101 33979 ft 458 kts 306°
2026-04-22 06:36 38.63621 -99.66599 33976 ft 459 kts 307°
2026-04-22 06:37 38.67475 -99.73108 33968 ft 459 kts 307°
2026-04-22 06:37 38.71323 -99.79618 33967 ft 458 kts 306°
2026-04-22 06:38 38.75160 -99.86123 33960 ft 460 kts 305°
2026-04-22 06:38 38.78992 -99.92636 33960 ft 457 kts 306°
2026-04-22 06:39 38.82827 -99.99163 33947 ft 459 kts 306°
2026-04-22 06:39 38.86653 -100.05688 33947 ft 456 kts 306°
2026-04-22 06:40 38.90476 -100.12222 33943 ft 459 kts 305°
2026-04-22 06:40 38.94257 -100.18697 33931 ft 454 kts 305°
2026-04-22 06:41 38.98054 -100.25215 33927 ft 458 kts 305°
2026-04-22 06:41 39.01866 -100.31769 33920 ft 456 kts 304°
2026-04-22 06:42 39.05665 -100.38317 33924 ft 456 kts 306°
2026-04-22 06:42 39.09461 -100.44871 33940 ft 456 kts 306°
2026-04-22 06:43 39.13244 -100.51417 33955 ft 455 kts 304°
2026-04-22 06:43 39.17023 -100.57967 33969 ft 456 kts 304°
2026-04-22 06:44 39.20808 -100.64544 33979 ft 456 kts 304°
2026-04-22 06:44 39.24591 -100.71129 33980 ft 457 kts 304°
2026-04-22 06:45 39.28369 -100.77720 33972 ft 456 kts 305°
2026-04-22 06:45 39.32118 -100.84272 33954 ft 457 kts 304°
2026-04-22 06:46 39.35885 -100.90870 33926 ft 455 kts 304°
2026-04-22 06:46 39.39643 -100.97468 33999 ft 457 kts 304°
2026-04-22 06:47 39.43409 -101.04092 34000 ft 456 kts 304°
2026-04-22 06:47 39.47163 -101.10708 33999 ft 456 kts 304°
2026-04-22 06:48 39.50920 -101.17343 33977 ft 455 kts 303°
2026-04-22 06:48 39.54652 -101.23950 33947 ft 455 kts 304°
2026-04-22 06:49 39.58367 -101.30537 33859 ft 455 kts 304°
2026-04-22 06:49 39.62109 -101.37190 33850 ft 456 kts 303°
2026-04-22 06:50 39.65846 -101.43844 33867 ft 456 kts 303°
2026-04-22 06:50 39.69577 -101.50501 33890 ft 454 kts 302°
2026-04-22 06:51 39.73296 -101.57155 33907 ft 456 kts 303°
2026-04-22 06:51 39.77009 -101.63809 33926 ft 455 kts 303°
2026-04-22 06:52 39.80721 -101.70475 33943 ft 456 kts 303°
2026-04-22 06:52 39.84434 -101.77160 33944 ft 455 kts 303°
2026-04-22 06:53 39.88111 -101.83791 33933 ft 455 kts 303°
2026-04-22 06:53 39.91818 -101.90491 33904 ft 455 kts 303°
2026-04-22 06:54 39.95517 -101.97191 33879 ft 455 kts 303°
2026-04-22 06:54 39.99214 -102.03902 33846 ft 455 kts 303°
2026-04-22 06:55 40.02928 -102.10659 33814 ft 458 kts 303°
2026-04-22 06:55 40.06633 -102.17410 33812 ft 457 kts 303°
2026-04-22 06:56 40.10332 -102.24169 33805 ft 457 kts 302°
2026-04-22 06:56 40.14020 -102.30922 33805 ft 457 kts 303°
2026-04-22 06:57 40.17709 -102.37691 33803 ft 457 kts 302°
2026-04-22 06:57 40.21399 -102.44473 33811 ft 460 kts 302°
2026-04-22 06:58 40.25097 -102.51290 33803 ft 458 kts 302°
2026-04-22 06:58 40.28751 -102.58036 33800 ft 457 kts 302°
2026-04-22 06:59 40.32422 -102.64830 33797 ft 457 kts 302°
2026-04-22 06:59 40.36112 -102.71673 33798 ft 457 kts 302°
2026-04-22 07:00 40.39756 -102.78447 33792 ft 458 kts 301°
2026-04-22 07:00 40.43432 -102.85296 33795 ft 458 kts 302°
2026-04-22 07:01 40.47097 -102.92136 33786 ft 458 kts 301°
2026-04-22 07:01 40.50760 -102.98989 33774 ft 457 kts 301°
2026-04-22 07:01 40.52575 -103.02389 33428 ft 452 kts 302°
2026-04-22 07:02 40.54376 -103.05768 32820 ft 451 kts 302°
2026-04-22 07:02 40.56171 -103.09142 32207 ft 449 kts 302°
2026-04-22 07:02 40.57966 -103.12517 31660 ft 451 kts 301°
2026-04-22 07:02 40.59558 -103.16058 30938 ft 448 kts 289°
2026-04-22 07:03 40.60436 -103.19925 30248 ft 445 kts 279°
2026-04-22 07:03 40.60848 -103.23941 29548 ft 442 kts 270°
2026-04-22 07:03 40.60769 -103.27968 28820 ft 440 kts 262°
2026-04-22 07:03 40.60198 -103.31930 28086 ft 444 kts 252°
2026-04-22 07:04 40.59140 -103.35745 27338 ft 446 kts 244°
2026-04-22 07:04 40.57841 -103.39459 26537 ft 448 kts 244°
2026-04-22 07:04 40.56534 -103.43202 25698 ft 451 kts 245°
2026-04-22 07:04 40.55253 -103.46957 24854 ft 451 kts 245°
2026-04-22 07:05 40.53975 -103.50713 24023 ft 449 kts 244°
2026-04-22 07:05 40.52688 -103.54447 23173 ft 448 kts 244°
2026-04-22 07:05 40.51404 -103.58156 22375 ft 443 kts 244°
2026-04-22 07:05 40.50139 -103.61827 21608 ft 438 kts 244°
2026-04-22 07:06 40.48893 -103.65445 21061 ft 429 kts 244°
2026-04-22 07:06 40.47678 -103.68963 20861 ft 413 kts 244°
2026-04-22 07:06 40.46516 -103.72318 20752 ft 395 kts 244°
2026-04-22 07:06 40.45386 -103.75538 20640 ft 379 kts 241°
2026-04-22 07:07 40.44091 -103.78498 20313 ft 370 kts 238°
2026-04-22 07:07 40.42776 -103.81321 19995 ft 364 kts 237°
2026-04-22 07:07 40.41466 -103.84135 19662 ft 362 kts 238°
2026-04-22 07:07 40.40154 -103.87005 19336 ft 360 kts 238°
2026-04-22 07:08 40.38879 -103.89804 19004 ft 356 kts 238°
2026-04-22 07:08 40.37617 -103.92546 18673 ft 356 kts 237°
2026-04-22 07:08 40.36346 -103.95297 18333 ft 350 kts 237°
2026-04-22 07:08 40.35098 -103.98007 17960 ft 344 kts 237°
2026-04-22 07:09 40.33869 -104.00675 17612 ft 338 kts 237°
2026-04-22 07:09 40.32690 -104.03307 17297 ft 332 kts 242°
2026-04-22 07:09 40.31955 -104.06157 16987 ft 329 kts 257°
2026-04-22 07:09 40.31845 -104.09136 16578 ft 328 kts 272°
2026-04-22 07:10 40.32091 -104.12092 16270 ft 324 kts 273°
2026-04-22 07:10 40.32353 -104.15006 15971 ft 320 kts 273°
2026-04-22 07:10 40.32608 -104.17879 15672 ft 316 kts 273°
2026-04-22 07:10 40.32852 -104.20717 15378 ft 312 kts 273°
2026-04-22 07:11 40.33093 -104.23529 15109 ft 309 kts 273°
2026-04-22 07:11 40.33333 -104.26309 14833 ft 306 kts 273°
2026-04-22 07:11 40.33572 -104.29072 14539 ft 303 kts 272°
2026-04-22 07:11 40.33806 -104.31800 14265 ft 300 kts 272°
2026-04-22 07:12 40.33959 -104.33591 14082 ft 298 kts 272°
2026-04-22 07:12 40.34188 -104.36280 13810 ft 296 kts 272°
2026-04-22 07:12 40.34326 -104.39819 13439 ft 291 kts 269°
2026-04-22 07:12 40.34438 -104.42458 13166 ft 289 kts 269°
2026-04-22 07:13 40.34545 -104.45064 12894 ft 285 kts 268°
2026-04-22 07:13 40.34639 -104.47652 12626 ft 282 kts 268°
2026-04-22 07:13 40.34700 -104.49382 12458 ft 281 kts 268°
2026-04-22 07:13 40.34793 -104.51929 12200 ft 278 kts 268°
2026-04-22 07:14 40.34886 -104.54444 11945 ft 276 kts 268°
2026-04-22 07:14 40.34977 -104.56938 11780 ft 270 kts 268°
2026-04-22 07:14 40.35064 -104.59343 11770 ft 259 kts 268°
2026-04-22 07:14 40.35142 -104.61621 11766 ft 248 kts 267°
2026-04-22 07:15 40.35217 -104.63871 11767 ft 247 kts 267°
2026-04-22 07:15 40.35293 -104.66115 11779 ft 246 kts 267°
2026-04-22 07:15 40.35355 -104.68360 11774 ft 245 kts 259°
2026-04-22 07:15 40.34723 -104.70330 11806 ft 236 kts 221°
2026-04-22 07:16 40.33318 -104.71252 11818 ft 228 kts 184°
2026-04-22 07:16 40.31790 -104.70711 11823 ft 238 kts 146°
2026-04-22 07:16 40.30828 -104.68910 11824 ft 254 kts 108°
2026-04-22 07:16 40.30904 -104.66566 11824 ft 269 kts 70°
2026-04-22 07:17 40.31803 -104.64400 11788 ft 269 kts 79°
2026-04-22 07:17 40.31848 -104.62060 11822 ft 254 kts 116°
2026-04-22 07:17 40.30865 -104.60275 11828 ft 239 kts 153°
2026-04-22 07:17 40.29327 -104.59740 11826 ft 229 kts 191°
2026-04-22 07:18 40.27933 -104.60644 11828 ft 229 kts 224°
2026-04-22 07:18 40.26949 -104.62294 11793 ft 231 kts 234°
2026-04-22 07:18 40.26101 -104.64081 11790 ft 231 kts 236°
2026-04-22 07:18 40.25082 -104.65647 11827 ft 227 kts 207°
2026-04-22 07:19 40.23543 -104.66040 11822 ft 231 kts 177°
2026-04-22 07:19 40.21943 -104.65736 11785 ft 231 kts 175°
2026-04-22 07:19 40.20352 -104.65563 11757 ft 230 kts 181°
2026-04-22 07:19 40.18753 -104.65581 11427 ft 235 kts 184°
2026-04-22 07:20 40.17103 -104.65643 11107 ft 239 kts 183°
2026-04-22 07:20 40.15428 -104.65676 10788 ft 242 kts 182°
2026-04-22 07:20 40.13749 -104.65696 10503 ft 235 kts 183°
2026-04-22 07:20 40.12192 -104.65710 10209 ft 213 kts 183°
2026-04-22 07:21 40.10767 -104.65722 9919 ft 197 kts 183°
2026-04-22 07:21 40.09443 -104.65734 9644 ft 184 kts 183°
2026-04-22 07:21 40.08201 -104.65753 9380 ft 173 kts 184°
2026-04-22 07:21 40.07032 -104.65766 9240 ft 162 kts 183°
2026-04-22 07:22 40.05918 -104.65777 9024 ft 159 kts 183°
2026-04-22 07:22 40.04821 -104.65789 8820 ft 157 kts 184°
2026-04-22 07:22 40.03767 -104.65804 8620 ft 142 kts 184°
2026-04-22 07:22 40.02795 -104.65814 8428 ft 138 kts 184°
2026-04-22 07:23 40.01859 -104.65829 8274 ft 136 kts 184°
2026-04-22 07:23 40.00927 -104.65841 8100 ft 134 kts 184°
2026-04-22 07:23 39.99988 -104.65851 7938 ft 130 kts 185°
2026-04-22 07:23 39.99071 -104.65862 7799 ft 134 kts 185°
2026-04-22 07:24 39.98170 -104.65872 7643 ft 131 kts 184°
2026-04-22 07:24 39.97240 -104.65883 7476 ft 133 kts 183°
2026-04-22 07:24 39.96299 -104.65894 7332 ft 134 kts 183°
2026-04-22 07:24 39.95401 -104.65907 7171 ft 128 kts 184°
2026-04-22 07:25 39.94526 -104.65918 7000 ft 124 kts 183°
2026-04-22 07:25 39.93661 -104.65927 6862 ft 128 kts 182°
2026-04-22 07:25 39.92776 -104.65936 6710 ft 124 kts 185°
2026-04-22 07:25 39.91925 -104.65946 6558 ft 121 kts 184°
2026-04-22 07:26 39.91099 -104.65957 6430 ft 119 kts 185°
2026-04-22 07:26 39.90243 -104.65972 6295 ft 126 kts 182°
2026-04-22 07:26 39.89343 -104.65988 6110 ft 134 kts 182°
2026-04-22 07:26 39.88408 -104.66007 5944 ft 133 kts 181°
2026-04-22 07:27 39.87515 -104.66007 5700 ft 125 kts 181°
2026-04-22 07:27 39.86644 -104.66012 5554 ft 122 kts 181°
2026-04-22 07:27 39.85808 -104.66023 5408 ft 114 kts 181°
2026-04-22 07:27 39.85108 -104.66032 5377 ft 86 kts 181°
2026-04-22 07:28 39.84290 -104.66050 5375 ft 40 kts 189°
2026-04-22 07:28 39.84094 -104.66138 5371 ft 18 kts 210°
2026-04-22 07:28 39.84063 -104.66162 5372 ft 3 kts 211°
2026-04-22 07:29 39.84034 -104.66189 5369 ft 8 kts 225°
2026-04-22 07:29 39.84039 -104.66250 5368 ft 5 kts 332°
2026-04-22 07:29 39.84083 -104.66255 5372 ft 7 kts
2026-04-22 07:29 39.84147 -104.66254 5374 ft 11 kts
2026-04-22 07:30 39.84231 -104.66254 5376 ft 14 kts 360°
2026-04-22 07:30 39.84342 -104.66253 5379 ft 18 kts
2026-04-22 07:30 39.84475 -104.66251 5378 ft 19 kts
2026-04-22 07:30 39.84609 -104.66249 5382 ft 19 kts
2026-04-22 07:31 39.84747 -104.66247 5381 ft 21 kts
2026-04-22 07:31 39.84898 -104.66244 5380 ft 22 kts
2026-04-22 07:31 39.85001 -104.66241 5382 ft 8 kts
2026-04-22 07:31 39.85040 -104.66241 5381 ft 4 kts
2026-04-22 07:32 39.85077 -104.66241 5383 ft 8 kts 359°
2026-04-22 07:32 39.85153 -104.66242 5383 ft 14 kts 360°
2026-04-22 07:32 39.85268 -104.66240 5385 ft 19 kts
2026-04-22 07:32 39.85405 -104.66239 5389 ft 21 kts
2026-04-22 07:33 39.85543 -104.66241 5391 ft 17 kts 348°
2026-04-22 07:33 39.85587 -104.66327 5390 ft 7 kts 289°
2026-04-22 07:33 39.85633 -104.66351 5391 ft 12 kts 356°
2026-04-22 07:33 39.85729 -104.66351 5394 ft 15 kts
2026-04-22 07:34 39.85847 -104.66349 5387 ft 20 kts
2026-04-22 07:34 39.85995 -104.66360 5389 ft 18 kts 330°
2026-04-22 07:34 39.86016 -104.66474 5391 ft 13 kts 266°
2026-04-22 07:34 39.86022 -104.66557 5386 ft 4 kts 312°
2026-04-22 07:35 39.86054 -104.66585 5385 ft 9 kts 313°
2026-04-22 07:35 39.86073 -104.66697 5385 ft 16 kts 271°
2026-04-22 07:35 39.86076 -104.66872 5381 ft 22 kts 273°
2026-04-22 07:35 39.86132 -104.67052 5378 ft 20 kts 322°
2026-04-22 07:36 39.86235 -104.67083 5376 ft 10 kts
2026-04-22 07:36 39.86254 -104.67083 5377 ft 0 kts